Time,TemperatureF,DewpointF,PressureIn,WindDirection,WindDirectionDegrees,WindSpeedMPH,WindSpeedGustMPH,Humidity,HourlyPrecipIn,Conditions,Clouds,dailyrainin,SoftwareType,DateUTC
2013-05-25 00:03:00,50.4,46.6,30.01,West,270,4.5,5.1,87,0.00,,,0.00,WUHU216HW,2013-05-25 07:03:00,
2013-05-25 00:08:00,50.4,46.9,30.01,WSW,248,1.8,5.1,88,0.00,,,0.00,WUHU216HW,2013-05-25 07:08:00,
2013-05-25 00:13:00,50.4,46.6,30.01,West,270,1.3,4.7,87,0.00,,,0.00,WUHU216HW,2013-05-25 07:13:00,
2013-05-25 00:18:00,50.4,46.6,30.01,NNW,338,1.8,4.7,87,0.00,,,0.00,WUHU216HW,2013-05-25 07:18:00,
2013-05-25 00:23:00,50.4,46.6,30.01,WSW,248,2.0,3.6,87,0.00,,,0.00,WUHU216HW,2013-05-25 07:23:00,
2013-05-25 00:28:00,50.2,46.5,30.01,SW,225,4.0,6.0,87,0.00,,,0.00,WUHU216HW,2013-05-25 07:28:00,
2013-05-25 00:33:00,50.2,46.5,30.01,SW,225,2.9,6.9,87,0.00,,,0.00,WUHU216HW,2013-05-25 07:33:00,
2013-05-25 00:38:00,50.2,46.1,30.01,SW,225,2.7,6.9,86,0.00,,,0.00,WUHU216HW,2013-05-25 07:38:00,
2013-05-25 00:43:00,50.2,46.5,30.01,SW,225,2.5,5.6,87,0.00,,,0.00,WUHU216HW,2013-05-25 07:43:00,
2013-05-25 00:48:00,50.2,46.1,30.00,SW,225,4.0,4.0,86,0.00,,,0.00,WUHU216HW,2013-05-25 07:48:00,
2013-05-25 00:53:00,50.2,46.1,30.00,NW,315,1.6,5.4,86,0.00,,,0.00,WUHU216HW,2013-05-25 07:53:00,
2013-05-25 00:58:00,50.2,46.1,30.01,WSW,248,2.5,5.4,86,0.00,,,0.00,WUHU216HW,2013-05-25 07:58:00,
2013-05-25 01:03:00,50.2,45.8,30.01,SW,225,0.9,2.9,85,0.00,,,0.00,WUHU216HW,2013-05-25 08:03:00,
2013-05-25 01:08:00,50.2,45.8,30.01,WSW,248,0.4,3.8,85,0.00,,,0.00,WUHU216HW,2013-05-25 08:08:00,
2013-05-25 01:13:00,50.2,45.8,30.01,SW,225,2.0,3.8,85,0.00,,,0.00,WUHU216HW,2013-05-25 08:13:00,
2013-05-25 01:18:00,50.2,45.6,30.00,West,270,3.1,5.1,84,0.00,,,0.00,WUHU216HW,2013-05-25 08:18:00,
2013-05-25 01:23:00,50.2,45.6,30.01,WNW,293,3.4,5.1,84,0.00,,,0.00,WUHU216HW,2013-05-25 08:23:00,
2013-05-25 01:28:00,50.2,45.6,30.01,WSW,248,1.6,4.0,84,0.00,,,0.00,WUHU216HW,2013-05-25 08:28:00,
2013-05-25 01:33:00,50.2,45.6,30.01,SW,225,1.8,6.5,84,0.00,,,0.00,WUHU216HW,2013-05-25 08:33:00,
2013-05-25 01:38:00,50.0,45.6,30.01,WSW,248,1.3,6.5,85,0.00,,,0.00,WUHU216HW,2013-05-25 08:38:00,
2013-05-25 01:43:00,50.0,45.6,30.01,WSW,248,1.8,3.1,85,0.00,,,0.00,WUHU216HW,2013-05-25 08:43:00,
2013-05-25 01:48:00,49.9,45.8,30.01,West,270,3.8,5.4,86,0.00,,,0.00,WUHU216HW,2013-05-25 08:48:00,
2013-05-25 01:53:00,49.7,45.6,30.00,SW,225,2.9,5.4,86,0.00,,,0.00,WUHU216HW,2013-05-25 08:53:00,
2013-05-25 01:58:00,49.7,45.6,30.00,WSW,248,3.8,5.4,86,0.00,,,0.00,WUHU216HW,2013-05-25 08:58:00,
2013-05-25 02:03:00,49.5,45.1,30.00,WSW,248,7.2,7.2,85,0.00,,,0.00,WUHU216HW,2013-05-25 09:03:00,
2013-05-25 02:08:00,49.3,44.9,30.00,WSW,248,0.9,7.2,85,0.00,,,0.00,WUHU216HW,2013-05-25 09:08:00,
2013-05-25 02:13:00,49.3,45.3,30.00,WSW,248,2.2,2.7,86,0.00,,,0.00,WUHU216HW,2013-05-25 09:13:00,
2013-05-25 02:18:00,49.3,45.5,30.00,WSW,248,2.0,4.0,87,0.00,,,0.00,WUHU216HW,2013-05-25 09:18:00,
2013-05-25 02:23:00,49.3,45.5,30.00,SSE,158,2.0,4.0,87,0.00,,,0.00,WUHU216HW,2013-05-25 09:23:00,
2013-05-25 02:28:00,49.3,45.5,30.00,SSW,203,4.0,4.7,87,0.00,,,0.00,WUHU216HW,2013-05-25 09:28:00,
2013-05-25 02:33:00,49.1,45.4,30.00,WSW,248,2.2,4.7,87,0.00,,,0.00,WUHU216HW,2013-05-25 09:33:00,
2013-05-25 02:38:00,49.0,45.5,30.00,WSW,248,2.7,4.9,88,0.01,,,0.01,WUHU216HW,2013-05-25 09:38:00,
2013-05-25 02:43:00,48.8,45.4,30.00,SSW,203,2.0,4.9,88,0.01,,,0.01,WUHU216HW,2013-05-25 09:43:00,
2013-05-25 02:48:00,48.6,45.5,30.00,SW,225,1.6,3.1,89,0.02,,,0.02,WUHU216HW,2013-05-25 09:48:00,
2013-05-25 02:53:00,48.4,45.4,30.00,SSE,158,2.9,3.4,89,0.03,,,0.03,WUHU216HW,2013-05-25 09:53:00,
2013-05-25 02:58:00,48.4,45.4,30.00,SW,225,2.2,3.6,89,0.04,,,0.03,WUHU216HW,2013-05-25 09:58:00,
2013-05-25 03:03:00,48.2,45.2,30.00,West,270,3.4,5.4,89,0.04,,,0.04,WUHU216HW,2013-05-25 10:03:00,
2013-05-25 03:08:00,48.2,45.5,30.00,SW,225,1.1,5.4,90,0.04,,,0.04,WUHU216HW,2013-05-25 10:08:00,
2013-05-25 03:13:00,48.1,45.4,30.00,West,270,0.9,3.4,90,0.04,,,0.04,WUHU216HW,2013-05-25 10:13:00,
2013-05-25 03:19:00,48.1,45.4,30.00,SSW,203,1.3,3.1,90,0.04,,,0.04,WUHU216HW,2013-05-25 10:19:00,
2013-05-25 03:24:00,48.1,45.4,30.00,SW,225,2.0,3.8,90,0.04,,,0.04,WUHU216HW,2013-05-25 10:24:00,
2013-05-25 03:29:00,48.1,45.4,30.00,WSW,248,1.8,3.8,90,0.04,,,0.04,WUHU216HW,2013-05-25 10:29:00,
2013-05-25 03:34:00,48.1,45.6,30.00,WSW,248,3.1,3.4,91,0.04,,,0.04,WUHU216HW,2013-05-25 10:34:00,
2013-05-25 03:39:00,48.1,45.6,30.00,WSW,248,3.8,3.8,91,0.03,,,0.04,WUHU216HW,2013-05-25 10:39:00,
2013-05-25 03:44:00,47.9,45.5,30.00,WSW,248,1.6,4.5,91,0.02,,,0.04,WUHU216HW,2013-05-25 10:44:00,
2013-05-25 03:49:00,47.9,45.5,30.00,West,270,1.8,4.5,91,0.01,,,0.04,WUHU216HW,2013-05-25 10:49:00,
2013-05-25 03:54:00,47.9,45.5,30.00,West,270,2.5,2.9,91,0.01,,,0.04,WUHU216HW,2013-05-25 10:54:00,
2013-05-25 03:59:00,47.9,45.5,30.00,WSW,248,2.2,3.1,91,0.00,,,0.04,WUHU216HW,2013-05-25 10:59:00,
2013-05-25 04:04:00,47.9,45.5,30.00,SSW,203,1.8,3.1,91,0.00,,,0.04,WUHU216HW,2013-05-25 11:04:00,
2013-05-25 04:09:00,47.9,45.5,30.00,SW,225,0.9,3.1,91,0.00,,,0.04,WUHU216HW,2013-05-25 11:09:00,
2013-05-25 04:14:00,47.9,45.5,30.00,SSW,203,2.0,3.1,91,0.00,,,0.04,WUHU216HW,2013-05-25 11:14:00,
2013-05-25 04:19:00,47.9,45.5,30.00,SSW,203,1.8,2.2,91,0.00,,,0.04,WUHU216HW,2013-05-25 11:19:00,
2013-05-25 04:24:00,47.9,45.5,30.00,South,180,2.0,3.4,91,0.00,,,0.04,WUHU216HW,2013-05-25 11:24:00,
2013-05-25 04:29:00,47.9,45.5,29.99,SSW,203,1.6,3.4,91,0.00,,,0.04,WUHU216HW,2013-05-25 11:29:00,
2013-05-25 04:34:00,47.9,45.5,30.00,South,180,0.7,2.5,91,0.00,,,0.04,WUHU216HW,2013-05-25 11:34:00,
2013-05-25 04:39:00,48.1,45.6,29.99,South,180,2.9,2.9,91,0.00,,,0.04,WUHU216HW,2013-05-25 11:39:00,
2013-05-25 04:44:00,48.1,45.6,30.00,South,180,2.0,3.4,91,0.00,,,0.04,WUHU216HW,2013-05-25 11:44:00,
2013-05-25 04:49:00,48.1,45.6,29.99,SSE,158,2.7,3.4,91,0.00,,,0.04,WUHU216HW,2013-05-25 11:49:00,
2013-05-25 04:54:00,48.1,45.6,29.99,SSE,158,2.5,3.4,91,0.00,,,0.04,WUHU216HW,2013-05-25 11:54:00,
2013-05-25 04:59:00,48.1,45.6,30.00,SE,135,2.5,3.4,91,0.01,,,0.05,WUHU216HW,2013-05-25 11:59:00,
2013-05-25 05:04:00,48.2,45.8,29.99,SSE,158,1.1,3.1,91,0.01,,,0.05,WUHU216HW,2013-05-25 12:04:00,
2013-05-25 05:09:00,48.2,45.8,29.99,SSE,158,0.7,2.9,91,0.01,,,0.05,WUHU216HW,2013-05-25 12:09:00,
2013-05-25 05:14:00,48.2,45.8,29.99,SW,225,1.3,2.9,91,0.01,,,0.05,WUHU216HW,2013-05-25 12:14:00,
2013-05-25 05:19:00,48.2,45.8,29.99,SSE,158,2.5,2.7,91,0.01,,,0.05,WUHU216HW,2013-05-25 12:19:00,
2013-05-25 05:24:00,48.2,45.8,29.99,South,180,1.8,2.7,91,0.01,,,0.05,WUHU216HW,2013-05-25 12:24:00,
2013-05-25 05:29:00,48.2,45.8,29.99,South,180,1.1,2.7,91,0.01,,,0.05,WUHU216HW,2013-05-25 12:29:00,
2013-05-25 05:34:00,48.2,45.8,30.00,SSW,203,1.1,2.7,91,0.01,,,0.05,WUHU216HW,2013-05-25 12:34:00,
2013-05-25 05:39:00,48.2,45.8,29.99,SSW,203,0.9,1.6,91,0.01,,,0.05,WUHU216HW,2013-05-25 12:39:00,
2013-05-25 05:44:00,48.2,45.8,30.00,SSW,203,1.1,2.0,91,0.01,,,0.05,WUHU216HW,2013-05-25 12:44:00,
2013-05-25 05:49:00,48.1,45.6,30.00,SW,225,1.1,2.0,91,0.01,,,0.05,WUHU216HW,2013-05-25 12:49:00,
2013-05-25 05:54:00,48.1,45.6,30.00,South,180,1.1,1.6,91,0.01,,,0.05,WUHU216HW,2013-05-25 12:54:00,
2013-05-25 05:59:00,48.1,45.6,30.00,SW,225,1.3,2.2,91,0.00,,,0.05,WUHU216HW,2013-05-25 12:59:00,
2013-05-25 06:04:00,48.1,45.6,30.00,WSW,248,0.4,2.2,91,0.00,,,0.05,WUHU216HW,2013-05-25 13:04:00,
2013-05-25 06:09:00,48.1,45.4,30.00,WSW,248,0.4,2.0,90,0.01,,,0.06,WUHU216HW,2013-05-25 13:09:00,
2013-05-25 06:14:00,47.9,45.2,30.00,WSW,248,0.7,1.8,90,0.01,,,0.06,WUHU216HW,2013-05-25 13:14:00,
2013-05-25 06:19:00,48.1,45.4,30.00,SSW,203,1.1,1.8,90,0.01,,,0.06,WUHU216HW,2013-05-25 13:19:00,
2013-05-25 06:24:00,48.1,45.4,30.00,SSE,158,0.4,1.1,90,0.01,,,0.06,WUHU216HW,2013-05-25 13:24:00,
2013-05-25 06:29:00,48.2,45.5,30.00,East,90,0.9,1.3,90,0.01,,,0.06,WUHU216HW,2013-05-25 13:29:00,
2013-05-25 06:34:00,48.4,45.7,30.00,SSE,158,1.3,1.8,90,0.01,,,0.06,WUHU216HW,2013-05-25 13:34:00,
2013-05-25 06:39:00,48.4,45.7,30.00,SSE,158,1.1,1.8,90,0.01,,,0.06,WUHU216HW,2013-05-25 13:39:00,
2013-05-25 06:44:00,48.4,45.7,30.00,SSE,158,1.6,2.5,90,0.01,,,0.06,WUHU216HW,2013-05-25 13:44:00,
2013-05-25 06:49:00,48.2,45.5,30.00,South,180,2.7,2.7,90,0.01,,,0.06,WUHU216HW,2013-05-25 13:49:00,
2013-05-25 06:54:00,48.2,45.5,30.00,South,180,1.3,2.7,90,0.02,,,0.07,WUHU216HW,2013-05-25 13:54:00,
2013-05-25 06:59:00,48.2,45.8,30.00,SSE,158,1.1,2.7,91,0.02,,,0.07,WUHU216HW,2013-05-25 13:59:00,
2013-05-25 07:04:00,48.2,45.8,30.00,SSE,158,1.6,2.7,91,0.01,,,0.07,WUHU216HW,2013-05-25 14:04:00,
2013-05-25 07:09:00,48.2,45.8,30.00,SE,135,1.1,2.2,91,0.01,,,0.07,WUHU216HW,2013-05-25 14:09:00,
2013-05-25 07:14:00,48.2,45.5,30.00,ESE,113,1.3,2.7,90,0.01,,,0.07,WUHU216HW,2013-05-25 14:14:00,
2013-05-25 07:19:00,48.4,45.7,30.00,ESE,113,1.8,2.7,90,0.01,,,0.07,WUHU216HW,2013-05-25 14:19:00,
2013-05-25 07:24:00,48.6,45.9,30.00,East,90,3.8,3.8,90,0.02,,,0.08,WUHU216HW,2013-05-25 14:24:00,
2013-05-25 07:29:00,48.6,45.9,30.00,ESE,113,2.5,3.8,90,0.02,,,0.08,WUHU216HW,2013-05-25 14:29:00,
2013-05-25 07:34:00,48.6,45.9,30.00,SSE,158,0.7,3.4,90,0.02,,,0.08,WUHU216HW,2013-05-25 14:34:00,
2013-05-25 07:39:00,48.8,45.7,30.00,ENE,68,0.0,3.4,89,0.02,,,0.08,WUHU216HW,2013-05-25 14:39:00,
2013-05-25 07:44:00,49.1,46.1,30.00,East,90,1.1,1.1,89,0.02,,,0.08,WUHU216HW,2013-05-25 14:44:00,
2013-05-25 07:49:00,49.3,46.2,30.00,East,90,0.2,1.1,89,0.01,,,0.08,WUHU216HW,2013-05-25 14:49:00,
2013-05-25 07:54:00,49.5,46.4,30.00,SE,135,0.0,0.7,89,0.01,,,0.08,WUHU216HW,2013-05-25 14:54:00,
2013-05-25 07:59:00,49.7,46.5,30.00,ESE,113,0.0,1.1,89,0.01,,,0.08,WUHU216HW,2013-05-25 14:59:00,
2013-05-25 08:04:00,49.7,46.5,30.00,ESE,113,0.0,1.1,89,0.01,,,0.08,WUHU216HW,2013-05-25 15:04:00,
2013-05-25 08:09:00,49.9,46.4,30.01,ESE,113,0.0,0.4,88,0.01,,,0.08,WUHU216HW,2013-05-25 15:09:00,
2013-05-25 08:14:00,50.0,46.5,30.00,East,90,1.6,1.6,88,0.01,,,0.08,WUHU216HW,2013-05-25 15:14:00,
2013-05-25 08:19:00,50.2,46.7,30.01,NE,45,1.3,2.5,88,0.01,,,0.08,WUHU216HW,2013-05-25 15:19:00,
2013-05-25 08:24:00,50.4,46.9,30.01,ESE,113,2.5,2.5,88,0.00,,,0.08,WUHU216HW,2013-05-25 15:24:00,
2013-05-25 08:29:00,50.8,47.3,30.01,ESE,113,1.3,2.9,88,0.00,,,0.08,WUHU216HW,2013-05-25 15:29:00,
2013-05-25 08:34:00,51.1,48.0,30.01,ESE,113,0.2,2.9,89,0.00,,,0.08,WUHU216HW,2013-05-25 15:34:00,
2013-05-25 08:39:00,51.5,48.3,30.00,East,90,1.6,1.8,89,0.00,,,0.08,WUHU216HW,2013-05-25 15:39:00,
2013-05-25 08:44:00,51.7,48.5,30.00,East,90,0.2,1.8,89,0.00,,,0.08,WUHU216HW,2013-05-25 15:44:00,
2013-05-25 08:49:00,52.2,48.7,30.00,NE,45,0.0,1.1,88,0.00,,,0.08,WUHU216HW,2013-05-25 15:49:00,
2013-05-25 08:54:00,52.6,49.1,30.00,NNE,23,0.4,1.3,88,0.00,,,0.08,WUHU216HW,2013-05-25 15:54:00,
2013-05-25 08:59:00,52.7,49.0,30.00,NNE,23,0.7,1.8,87,0.00,,,0.08,WUHU216HW,2013-05-25 15:59:00,
2013-05-25 09:04:00,52.9,49.2,30.00,NNE,23,0.4,1.8,87,0.00,,,0.08,WUHU216HW,2013-05-25 16:04:00,
2013-05-25 09:09:00,53.1,49.3,30.00,ENE,68,0.4,1.3,87,0.00,,,0.08,WUHU216HW,2013-05-25 16:09:00,
2013-05-25 09:14:00,53.3,49.1,30.00,NE,45,0.9,0.9,86,0.00,,,0.08,WUHU216HW,2013-05-25 16:14:00,
2013-05-25 09:19:00,53.3,49.1,30.00,ENE,68,1.1,1.8,86,0.00,,,0.08,WUHU216HW,2013-05-25 16:19:00,
2013-05-25 09:24:00,53.5,49.3,30.00,East,90,0.9,1.8,86,0.00,,,0.08,WUHU216HW,2013-05-25 16:24:00,
2013-05-25 09:29:00,53.6,49.5,30.00,North,0,0.0,0.9,86,0.00,,,0.08,WUHU216HW,2013-05-25 16:29:00,
2013-05-25 09:34:00,54.0,49.6,30.00,NNE,23,1.3,1.3,85,0.00,,,0.08,WUHU216HW,2013-05-25 16:34:00,
2013-05-25 09:39:00,53.8,49.4,30.00,ESE,113,1.8,2.0,85,0.00,,,0.08,WUHU216HW,2013-05-25 16:39:00,
2013-05-25 09:44:00,54.0,49.2,30.00,ENE,68,0.7,2.0,84,0.00,,,0.08,WUHU216HW,2013-05-25 16:44:00,
2013-05-25 09:49:00,54.2,49.4,30.01,NE,45,0.0,1.8,84,0.00,,,0.08,WUHU216HW,2013-05-25 16:49:00,
2013-05-25 09:54:00,54.4,49.3,30.00,NNE,23,0.0,0.7,83,0.00,,,0.08,WUHU216HW,2013-05-25 16:54:00,
2013-05-25 09:59:00,54.7,50.0,30.00,East,90,0.2,1.1,84,0.00,,,0.08,WUHU216HW,2013-05-25 16:59:00,
2013-05-25 10:04:00,55.4,50.6,30.00,NNE,23,2.2,2.2,84,0.00,,,0.08,WUHU216HW,2013-05-25 17:04:00,
2013-05-25 10:09:00,56.2,50.7,30.00,NE,45,2.0,2.7,82,0.00,,,0.08,WUHU216HW,2013-05-25 17:09:00,
2013-05-25 10:14:00,56.2,50.4,30.00,North,0,1.1,4.5,81,0.00,,,0.08,WUHU216HW,2013-05-25 17:14:00,
2013-05-25 10:19:00,55.8,49.7,30.00,ENE,68,0.7,4.5,80,0.00,,,0.08,WUHU216HW,2013-05-25 17:19:00,
2013-05-25 10:24:00,55.4,49.3,30.00,North,0,2.7,2.7,80,0.00,,,0.08,WUHU216HW,2013-05-25 17:24:00,
2013-05-25 10:29:00,55.1,49.0,30.00,North,0,1.8,2.9,80,0.00,,,0.08,WUHU216HW,2013-05-25 17:29:00,
2013-05-25 10:34:00,55.4,48.6,30.00,NNW,338,2.2,2.9,78,0.00,,,0.08,WUHU216HW,2013-05-25 17:34:00,
2013-05-25 10:39:00,56.2,50.0,30.00,ENE,68,0.9,3.1,80,0.00,,,0.08,WUHU216HW,2013-05-25 17:39:00,
2013-05-25 10:44:00,56.9,50.8,30.00,East,90,1.8,3.1,80,0.00,,,0.08,WUHU216HW,2013-05-25 17:44:00,
2013-05-25 10:49:00,56.9,50.0,30.00,NNW,338,1.8,3.6,78,0.00,,,0.08,WUHU216HW,2013-05-25 17:49:00,
2013-05-25 10:54:00,56.9,50.0,30.00,ENE,68,1.3,3.6,78,0.00,,,0.08,WUHU216HW,2013-05-25 17:54:00,
2013-05-25 10:59:00,57.2,50.4,30.00,NE,45,2.9,3.4,78,0.00,,,0.08,WUHU216HW,2013-05-25 17:59:00,
2013-05-25 11:04:00,57.6,50.8,30.00,North,0,2.7,3.4,78,0.00,,,0.08,WUHU216HW,2013-05-25 18:04:00,
2013-05-25 11:09:00,58.0,50.4,30.00,North,0,2.5,5.4,76,0.00,,,0.08,WUHU216HW,2013-05-25 18:09:00,
2013-05-25 11:14:00,58.1,49.9,30.00,NNW,338,2.9,5.4,74,0.00,,,0.08,WUHU216HW,2013-05-25 18:14:00,
2013-05-25 11:19:00,58.1,49.9,30.00,NNW,338,2.5,4.5,74,0.00,,,0.08,WUHU216HW,2013-05-25 18:19:00,
2013-05-25 11:24:00,58.3,49.7,30.00,North,0,3.1,4.0,73,0.00,,,0.08,WUHU216HW,2013-05-25 18:24:00,
2013-05-25 11:29:00,58.5,49.9,30.00,North,0,4.0,4.0,73,0.00,,,0.08,WUHU216HW,2013-05-25 18:29:00,
2013-05-25 11:34:00,58.7,50.0,30.00,North,0,4.7,5.1,73,0.00,,,0.08,WUHU216HW,2013-05-25 18:34:00,
2013-05-25 11:39:00,59.0,50.0,30.00,North,0,2.9,5.1,72,0.00,,,0.08,WUHU216HW,2013-05-25 18:39:00,
2013-05-25 11:44:00,59.0,49.7,30.00,NE,45,2.9,3.6,71,0.00,,,0.08,WUHU216HW,2013-05-25 18:44:00,
2013-05-25 11:49:00,58.9,49.5,30.00,ENE,68,2.0,3.8,71,0.00,,,0.08,WUHU216HW,2013-05-25 18:49:00,
2013-05-25 11:54:00,58.9,49.5,30.00,North,0,1.8,3.8,71,0.00,,,0.08,WUHU216HW,2013-05-25 18:54:00,
2013-05-25 11:59:00,58.9,48.7,30.00,North,0,2.0,4.0,69,0.00,,,0.08,WUHU216HW,2013-05-25 18:59:00,
2013-05-25 12:04:00,58.3,48.2,30.00,NNE,23,1.3,4.0,69,0.00,,,0.08,WUHU216HW,2013-05-25 19:04:00,
2013-05-25 12:09:00,57.8,48.4,30.00,North,0,1.1,2.9,71,0.00,,,0.08,WUHU216HW,2013-05-25 19:09:00,
2013-05-25 12:14:00,57.6,48.2,30.00,NNE,23,2.0,2.7,71,0.00,,,0.08,WUHU216HW,2013-05-25 19:14:00,
2013-05-25 12:19:00,57.8,47.7,30.00,North,0,2.7,4.0,69,0.00,,,0.08,WUHU216HW,2013-05-25 19:19:00,
2013-05-25 12:24:00,57.8,48.1,30.00,North,0,1.1,4.0,70,0.00,,,0.08,WUHU216HW,2013-05-25 19:24:00,
2013-05-25 12:29:00,57.6,47.9,30.00,North,0,1.1,3.8,70,0.00,,,0.08,WUHU216HW,2013-05-25 19:29:00,
2013-05-25 12:34:00,57.4,47.7,30.00,North,0,1.1,3.8,70,0.00,,,0.08,WUHU216HW,2013-05-25 19:34:00,
2013-05-25 12:39:00,57.4,47.7,30.00,NNE,23,2.7,4.5,70,0.00,,,0.08,WUHU216HW,2013-05-25 19:39:00,
2013-05-25 12:44:00,57.6,47.9,30.00,NNW,338,1.1,4.5,70,0.00,,,0.08,WUHU216HW,2013-05-25 19:44:00,
2013-05-25 12:49:00,57.4,47.7,30.00,ENE,68,2.5,4.0,70,0.00,,,0.08,WUHU216HW,2013-05-25 19:49:00,
2013-05-25 12:54:00,57.1,47.3,30.00,East,90,1.6,3.8,70,0.00,,,0.08,WUHU216HW,2013-05-25 19:54:00,
2013-05-25 12:59:00,57.4,48.1,30.00,North,0,2.5,2.9,71,0.00,,,0.08,WUHU216HW,2013-05-25 19:59:00,
2013-05-25 13:04:00,58.5,48.3,30.00,West,270,0.0,3.4,69,0.00,,,0.08,WUHU216HW,2013-05-25 20:04:00,
2013-05-25 13:09:00,59.4,50.0,30.01,NNE,23,2.2,3.4,71,0.00,,,0.08,WUHU216HW,2013-05-25 20:09:00,
2013-05-25 13:14:00,60.1,50.0,30.01,NNE,23,1.3,4.3,69,0.00,,,0.08,WUHU216HW,2013-05-25 20:14:00,
2013-05-25 13:19:00,60.1,49.1,30.01,ENE,68,1.1,4.3,67,0.00,,,0.08,WUHU216HW,2013-05-25 20:19:00,
2013-05-25 13:24:00,59.8,48.4,30.01,NNE,23,3.8,4.0,66,0.00,,,0.08,WUHU216HW,2013-05-25 20:24:00,
2013-05-25 13:29:00,59.6,48.6,30.01,NNE,23,1.8,3.8,67,0.00,,,0.08,WUHU216HW,2013-05-25 20:29:00,
2013-05-25 13:34:00,60.1,49.1,30.00,NW,315,0.2,3.4,67,0.00,,,0.08,WUHU216HW,2013-05-25 20:34:00,
2013-05-25 13:39:00,60.5,49.5,30.00,North,0,3.1,3.4,67,0.00,,,0.08,WUHU216HW,2013-05-25 20:39:00,
2013-05-25 13:44:00,60.5,49.5,30.00,NNE,23,2.7,3.6,67,0.00,,,0.08,WUHU216HW,2013-05-25 20:44:00,
2013-05-25 13:49:00,61.6,51.4,30.00,North,0,2.5,4.0,69,0.00,,,0.08,WUHU216HW,2013-05-25 20:49:00,
2013-05-25 13:54:00,61.9,50.9,30.00,NE,45,2.2,4.5,67,0.00,,,0.08,WUHU216HW,2013-05-25 20:54:00,
2013-05-25 13:59:00,61.9,50.1,30.00,NNE,23,5.1,5.1,65,0.00,,,0.08,WUHU216HW,2013-05-25 20:59:00,
2013-05-25 14:04:00,61.4,50.0,30.00,ESE,113,1.8,5.1,66,0.00,,,0.08,WUHU216HW,2013-05-25 21:04:00,
2013-05-25 14:09:00,61.4,48.3,30.00,North,0,2.7,4.0,62,0.00,,,0.08,WUHU216HW,2013-05-25 21:09:00,
2013-05-25 14:14:00,61.7,49.9,30.00,NE,45,6.3,6.3,65,0.00,,,0.08,WUHU216HW,2013-05-25 21:14:00,
2013-05-25 14:19:00,62.3,50.0,30.00,NW,315,1.1,6.3,64,0.00,,,0.08,WUHU216HW,2013-05-25 21:19:00,
2013-05-25 14:24:00,62.1,49.8,30.00,NE,45,2.0,5.4,64,0.00,,,0.08,WUHU216HW,2013-05-25 21:24:00,
2013-05-25 14:29:00,62.3,50.0,30.00,NNW,338,2.2,3.4,64,0.00,,,0.08,WUHU216HW,2013-05-25 21:29:00,
2013-05-25 14:34:00,62.1,49.8,30.00,NNE,23,2.9,3.4,64,0.00,,,0.08,WUHU216HW,2013-05-25 21:34:00,
2013-05-25 14:39:00,61.9,49.6,30.00,ENE,68,3.1,3.6,64,0.00,,,0.08,WUHU216HW,2013-05-25 21:39:00,
2013-05-25 14:44:00,61.9,49.6,30.00,NNE,23,2.5,3.6,64,0.00,,,0.08,WUHU216HW,2013-05-25 21:44:00,
2013-05-25 14:49:00,62.8,50.9,30.00,ENE,68,2.5,4.7,65,0.00,,,0.08,WUHU216HW,2013-05-25 21:49:00,
2013-05-25 14:54:00,64.4,51.9,29.99,NNE,23,1.6,5.6,64,0.00,,,0.08,WUHU216HW,2013-05-25 21:54:00,
2013-05-25 14:59:00,65.5,51.3,29.99,North,0,2.7,5.6,60,0.00,,,0.08,WUHU216HW,2013-05-25 21:59:00,
2013-05-25 15:04:00,64.8,50.1,29.99,NNW,338,6.5,6.5,59,0.00,,,0.08,WUHU216HW,2013-05-25 22:04:00,
2013-05-25 15:09:00,64.3,49.1,29.99,NNW,338,1.1,6.5,58,0.00,,,0.08,WUHU216HW,2013-05-25 22:09:00,
2013-05-25 15:14:00,63.2,48.6,29.99,NNE,23,5.4,5.4,59,0.00,,,0.08,WUHU216HW,2013-05-25 22:14:00,
2013-05-25 15:19:00,63.0,49.3,30.00,NNE,23,0.9,5.4,61,0.00,,,0.08,WUHU216HW,2013-05-25 22:19:00,
2013-05-25 15:24:00,64.4,51.1,29.99,North,0,3.1,5.1,62,0.00,,,0.08,WUHU216HW,2013-05-25 22:24:00,
2013-05-25 15:29:00,65.5,48.9,29.99,NNW,338,2.9,5.1,55,0.00,,,0.08,WUHU216HW,2013-05-25 22:29:00,
2013-05-25 15:34:00,64.1,48.0,29.99,WSW,248,2.7,4.7,56,0.00,,,0.08,WUHU216HW,2013-05-25 22:34:00,
2013-05-25 15:39:00,63.9,46.8,29.99,NW,315,2.5,5.4,54,0.00,,,0.08,WUHU216HW,2013-05-25 22:39:00,
2013-05-25 15:44:00,63.9,48.2,30.00,NNE,23,1.6,5.4,57,0.00,,,0.08,WUHU216HW,2013-05-25 22:44:00,
2013-05-25 15:49:00,64.3,47.2,29.99,WNW,293,4.9,4.9,54,0.00,,,0.08,WUHU216HW,2013-05-25 22:49:00,
2013-05-25 15:54:00,65.2,49.0,29.99,NNE,23,1.8,4.9,56,0.00,,,0.08,WUHU216HW,2013-05-25 22:54:00,
2013-05-25 15:59:00,66.4,47.4,29.99,NW,315,0.7,4.7,50,0.00,,,0.08,WUHU216HW,2013-05-25 22:59:00,
2013-05-25 16:04:00,66.6,47.5,29.99,NW,315,3.4,3.8,50,0.00,,,0.08,WUHU216HW,2013-05-25 23:04:00,
2013-05-25 16:09:00,67.3,47.5,29.99,West,270,2.5,5.1,49,0.00,,,0.08,WUHU216HW,2013-05-25 23:09:00,
2013-05-25 16:14:00,67.5,48.3,29.99,WNW,293,2.0,5.1,50,0.00,,,0.08,WUHU216HW,2013-05-25 23:14:00,
2013-05-25 16:19:00,67.5,47.1,29.99,SSW,203,2.5,3.4,48,0.00,,,0.08,WUHU216HW,2013-05-25 23:19:00,
2013-05-25 16:24:00,67.7,47.3,29.99,South,180,4.0,4.0,48,0.00,,,0.08,WUHU216HW,2013-05-25 23:24:00,
2013-05-25 16:29:00,66.4,46.2,29.99,WNW,293,4.0,4.0,48,0.00,,,0.08,WUHU216HW,2013-05-25 23:29:00,
2013-05-25 16:34:00,64.8,46.2,29.99,West,270,1.8,4.0,51,0.00,,,0.08,WUHU216HW,2013-05-25 23:34:00,
2013-05-25 16:39:00,62.8,44.9,29.99,WSW,248,0.9,2.7,52,0.00,,,0.08,WUHU216HW,2013-05-25 23:39:00,
2013-05-25 16:44:00,61.7,45.4,29.99,West,270,1.1,2.5,55,0.00,,,0.08,WUHU216HW,2013-05-25 23:44:00,
2013-05-25 16:49:00,60.8,45.0,29.99,West,270,2.9,3.4,56,0.00,,,0.08,WUHU216HW,2013-05-25 23:49:00,
2013-05-25 16:54:00,61.6,45.7,29.99,West,270,1.6,6.0,56,0.00,,,0.08,WUHU216HW,2013-05-25 23:54:00,
2013-05-25 16:59:00,62.5,46.5,29.99,NNW,338,2.2,6.0,56,0.00,,,0.08,WUHU216HW,2013-05-25 23:59:00,
2013-05-25 17:04:00,63.4,46.8,29.99,West,270,2.0,5.6,55,0.00,,,0.08,WUHU216HW,2013-05-26 00:04:00,
2013-05-25 17:09:00,65.2,47.1,29.98,NW,315,1.1,5.6,52,0.00,,,0.08,WUHU216HW,2013-05-26 00:09:00,
2013-05-25 17:14:00,65.9,46.8,29.98,WNW,293,5.4,5.4,50,0.00,,,0.08,WUHU216HW,2013-05-26 00:14:00,
2013-05-25 17:19:00,66.6,45.7,29.98,WSW,248,2.5,5.4,47,0.00,,,0.08,WUHU216HW,2013-05-26 00:19:00,
2013-05-25 17:24:00,65.9,46.2,29.98,West,270,0.2,4.7,49,0.00,,,0.08,WUHU216HW,2013-05-26 00:24:00,
2013-05-25 17:29:00,65.2,47.1,29.98,NW,315,1.1,4.7,52,0.00,,,0.08,WUHU216HW,2013-05-26 00:29:00,
2013-05-25 17:34:00,65.3,47.3,29.98,NW,315,0.7,4.3,52,0.00,,,0.08,WUHU216HW,2013-05-26 00:34:00,
2013-05-25 17:39:00,64.4,45.8,29.98,WNW,293,1.1,2.9,51,0.00,,,0.08,WUHU216HW,2013-05-26 00:39:00,
2013-05-25 17:44:00,62.8,44.9,29.98,West,270,2.2,2.9,52,0.00,,,0.08,WUHU216HW,2013-05-26 00:44:00,
2013-05-25 17:49:00,61.6,45.2,29.98,NW,315,1.8,4.7,55,0.00,,,0.08,WUHU216HW,2013-05-26 00:49:00,
2013-05-25 17:54:00,60.5,44.7,29.98,SW,225,1.1,5.1,56,0.00,,,0.08,WUHU216HW,2013-05-26 00:54:00,
2013-05-25 17:59:00,60.1,44.8,29.98,NW,315,3.1,5.4,57,0.00,,,0.08,WUHU216HW,2013-05-26 00:59:00,
2013-05-25 18:04:00,59.8,44.9,29.98,WNW,293,2.5,5.4,58,0.00,,,0.08,WUHU216HW,2013-05-26 01:04:00,
2013-05-25 18:09:00,59.6,45.3,29.98,NW,315,1.6,3.6,59,0.00,,,0.08,WUHU216HW,2013-05-26 01:09:00,
2013-05-25 18:14:00,59.2,44.5,29.98,WNW,293,4.0,4.0,58,0.00,,,0.08,WUHU216HW,2013-05-26 01:14:00,
2013-05-25 18:19:00,58.9,44.6,29.98,NW,315,0.4,4.0,59,0.00,,,0.08,WUHU216HW,2013-05-26 01:19:00,
2013-05-25 18:24:00,58.7,44.8,29.98,West,270,0.2,4.0,60,0.00,,,0.08,WUHU216HW,2013-05-26 01:24:00,
2013-05-25 18:29:00,58.7,44.8,29.98,SW,225,2.0,3.6,60,0.00,,,0.08,WUHU216HW,2013-05-26 01:29:00,
2013-05-25 18:34:00,57.8,44.5,29.98,NW,315,0.4,3.6,61,0.00,,,0.08,WUHU216HW,2013-05-26 01:34:00,
2013-05-25 18:39:00,57.8,44.8,29.98,SW,225,1.3,2.2,62,0.00,,,0.08,WUHU216HW,2013-05-26 01:39:00,
2013-05-25 18:44:00,57.2,44.7,29.98,WNW,293,1.6,2.7,63,0.00,,,0.08,WUHU216HW,2013-05-26 01:44:00,
2013-05-25 18:49:00,57.2,44.7,29.98,West,270,0.7,3.1,63,0.00,,,0.08,WUHU216HW,2013-05-26 01:49:00,
2013-05-25 18:54:00,56.5,44.5,29.98,WSW,248,1.6,3.1,64,0.00,,,0.08,WUHU216HW,2013-05-26 01:54:00,
2013-05-25 18:59:00,56.0,44.4,29.98,WSW,248,1.3,3.1,65,0.00,,,0.08,WUHU216HW,2013-05-26 01:59:00,
2013-05-25 19:04:00,55.8,44.6,29.98,WSW,248,0.4,2.7,66,0.00,,,0.08,WUHU216HW,2013-05-26 02:04:00,
2013-05-25 19:09:00,55.6,44.4,29.98,West,270,0.0,2.5,66,0.00,,,0.08,WUHU216HW,2013-05-26 02:09:00,
2013-05-25 19:14:00,55.3,44.5,29.98,WNW,293,2.5,2.5,67,0.00,,,0.08,WUHU216HW,2013-05-26 02:14:00,
2013-05-25 19:19:00,55.1,44.7,29.98,SW,225,0.4,2.9,68,0.00,,,0.08,WUHU216HW,2013-05-26 02:19:00,
2013-05-25 19:24:00,54.7,44.7,29.98,SW,225,2.2,2.9,69,0.00,,,0.08,WUHU216HW,2013-05-26 02:24:00,
2013-05-25 19:29:00,54.4,44.5,29.98,WSW,248,0.0,2.2,69,0.00,,,0.08,WUHU216HW,2013-05-26 02:29:00,
2013-05-25 19:34:00,54.0,44.8,29.98,SW,225,0.0,3.4,71,0.00,,,0.08,WUHU216HW,2013-05-26 02:34:00,
2013-05-25 19:39:00,53.6,45.2,29.98,SW,225,1.6,3.4,73,0.00,,,0.08,WUHU216HW,2013-05-26 02:39:00,
2013-05-25 19:44:00,53.5,44.3,29.98,SSW,203,0.4,2.5,71,0.00,,,0.08,WUHU216HW,2013-05-26 02:44:00,
2013-05-25 19:49:00,53.6,44.8,29.98,SW,225,0.4,2.2,72,0.00,,,0.08,WUHU216HW,2013-05-26 02:49:00,
2013-05-25 19:54:00,53.5,44.6,29.98,WSW,248,1.1,1.3,72,0.01,,,0.09,WUHU216HW,2013-05-26 02:54:00,
2013-05-25 19:59:00,53.3,44.5,29.98,SW,225,0.7,1.6,72,0.01,,,0.09,WUHU216HW,2013-05-26 02:59:00,
2013-05-25 20:04:00,53.1,44.3,29.98,West,270,0.0,2.2,72,0.01,,,0.09,WUHU216HW,2013-05-26 03:04:00,
2013-05-25 20:09:00,52.9,44.2,29.98,WSW,248,0.0,2.7,72,0.01,,,0.09,WUHU216HW,2013-05-26 03:09:00,
2013-05-25 20:14:00,52.7,44.4,29.98,WSW,248,0.2,2.7,73,0.01,,,0.09,WUHU216HW,2013-05-26 03:14:00,
2013-05-25 20:19:00,52.4,44.4,29.98,West,270,0.0,2.2,74,0.02,,,0.10,WUHU216HW,2013-05-26 03:19:00,
2013-05-25 20:24:00,52.2,44.6,29.98,SW,225,1.3,2.2,75,0.02,,,0.10,WUHU216HW,2013-05-26 03:24:00,
2013-05-25 20:29:00,52.0,44.4,29.98,SW,225,1.1,1.8,75,0.02,,,0.10,WUHU216HW,2013-05-26 03:29:00,
2013-05-25 20:34:00,51.8,44.9,29.98,WSW,248,0.7,2.5,77,0.02,,,0.10,WUHU216HW,2013-05-26 03:34:00,
2013-05-25 20:39:00,51.7,44.4,29.98,SW,225,0.0,2.5,76,0.02,,,0.10,WUHU216HW,2013-05-26 03:39:00,
2013-05-25 20:44:00,51.7,44.4,29.98,WSW,248,1.1,2.5,76,0.02,,,0.10,WUHU216HW,2013-05-26 03:44:00,
2013-05-25 20:49:00,51.7,44.7,29.98,West,270,0.0,1.6,77,0.01,,,0.10,WUHU216HW,2013-05-26 03:49:00,
2013-05-25 20:54:00,51.5,44.6,29.98,WSW,248,0.4,1.3,77,0.02,,,0.11,WUHU216HW,2013-05-26 03:54:00,
2013-05-25 20:59:00,51.3,44.4,29.98,WSW,248,0.0,1.1,77,0.02,,,0.11,WUHU216HW,2013-05-26 03:59:00,
2013-05-25 21:04:00,51.3,44.4,29.98,WSW,248,0.4,1.3,77,0.02,,,0.11,WUHU216HW,2013-05-26 04:04:00,
2013-05-25 21:09:00,51.3,44.6,29.98,WSW,248,0.0,1.3,78,0.02,,,0.11,WUHU216HW,2013-05-26 04:09:00,
2013-05-25 21:14:00,51.1,44.5,29.98,SW,225,1.1,1.1,78,0.02,,,0.11,WUHU216HW,2013-05-26 04:14:00,
2013-05-25 21:19:00,51.1,44.5,29.98,SW,225,0.0,1.1,78,0.01,,,0.11,WUHU216HW,2013-05-26 04:19:00,
2013-05-25 21:24:00,50.9,44.3,29.98,SSW,203,0.4,1.3,78,0.01,,,0.11,WUHU216HW,2013-05-26 04:24:00,
2013-05-25 21:29:00,50.9,44.6,29.98,SSW,203,0.9,1.3,79,0.01,,,0.11,WUHU216HW,2013-05-26 04:29:00,
2013-05-25 21:34:00,50.9,44.6,29.98,SSE,158,0.2,1.1,79,0.01,,,0.11,WUHU216HW,2013-05-26 04:34:00,
2013-05-25 21:39:00,50.8,44.5,29.98,South,180,0.2,1.1,79,0.02,,,0.12,WUHU216HW,2013-05-26 04:39:00,
2013-05-25 21:44:00,50.8,44.8,29.98,South,180,0.0,0.9,80,0.02,,,0.12,WUHU216HW,2013-05-26 04:44:00,
2013-05-25 21:49:00,50.8,44.8,29.98,South,180,0.0,0.2,80,0.02,,,0.12,WUHU216HW,2013-05-26 04:49:00,
2013-05-25 21:54:00,50.8,44.8,29.98,South,180,0.0,0.0,80,0.01,,,0.12,WUHU216HW,2013-05-26 04:54:00,
2013-05-25 21:59:00,50.8,45.1,29.98,SSW,203,0.4,0.4,81,0.01,,,0.12,WUHU216HW,2013-05-26 04:59:00,
2013-05-25 22:04:00,50.8,45.1,29.98,SSW,203,0.0,0.4,81,0.01,,,0.12,WUHU216HW,2013-05-26 05:04:00,
2013-05-25 22:09:00,50.6,44.9,29.98,SSW,203,0.0,0.4,81,0.01,,,0.12,WUHU216HW,2013-05-26 05:09:00,
2013-05-25 22:14:00,50.6,44.9,29.98,SSW,203,0.0,0.0,81,0.02,,,0.13,WUHU216HW,2013-05-26 05:14:00,
2013-05-25 22:19:00,50.6,45.3,29.98,SSW,203,0.0,0.0,82,0.02,,,0.13,WUHU216HW,2013-05-26 05:19:00,
2013-05-25 22:24:00,50.6,45.3,29.98,SSW,203,0.0,0.0,82,0.02,,,0.13,WUHU216HW,2013-05-26 05:24:00,
2013-05-25 22:29:00,50.6,45.3,29.98,SSW,203,0.0,0.0,82,0.02,,,0.13,WUHU216HW,2013-05-26 05:29:00,
2013-05-25 22:34:00,50.4,45.1,29.98,SSW,203,0.0,0.0,82,0.02,,,0.13,WUHU216HW,2013-05-26 05:34:00,
2013-05-25 22:39:00,50.4,45.1,29.98,SSW,203,0.0,0.0,82,0.01,,,0.13,WUHU216HW,2013-05-26 05:39:00,
2013-05-25 22:44:00,50.4,45.1,29.98,SSW,203,0.0,0.0,82,0.01,,,0.13,WUHU216HW,2013-05-26 05:44:00,
2013-05-25 22:49:00,50.4,45.1,29.98,SSW,203,0.0,0.0,82,0.01,,,0.13,WUHU216HW,2013-05-26 05:49:00,
2013-05-25 22:54:00,50.4,45.1,29.98,SSW,203,0.0,0.0,82,0.01,,,0.13,WUHU216HW,2013-05-26 05:54:00,
2013-05-25 22:59:00,50.2,44.9,29.98,SSW,203,0.0,0.0,82,0.01,,,0.13,WUHU216HW,2013-05-26 05:59:00,
2013-05-25 23:04:00,50.2,44.9,29.98,SSW,203,0.0,0.0,82,0.01,,,0.13,WUHU216HW,2013-05-26 06:04:00,
2013-05-25 23:09:00,50.0,44.7,29.98,SSW,203,0.0,0.0,82,0.01,,,0.13,WUHU216HW,2013-05-26 06:09:00,
2013-05-25 23:14:00,50.0,45.0,29.98,SSW,203,0.0,0.0,83,0.00,,,0.13,WUHU216HW,2013-05-26 06:14:00,
2013-05-25 23:19:00,50.0,45.0,29.98,SSW,203,0.0,0.0,83,0.00,,,0.13,WUHU216HW,2013-05-26 06:19:00,
2013-05-25 23:24:00,50.0,45.0,29.97,SSW,203,0.0,0.4,83,0.00,,,0.13,WUHU216HW,2013-05-26 06:24:00,
2013-05-25 23:29:00,50.0,45.0,29.98,SSW,203,0.0,0.4,83,0.00,,,0.13,WUHU216HW,2013-05-26 06:29:00,
2013-05-25 23:34:00,50.0,45.0,29.97,SW,225,0.4,0.4,83,0.00,,,0.13,WUHU216HW,2013-05-26 06:34:00,
2013-05-25 23:39:00,50.0,45.4,29.97,SW,225,0.0,0.4,84,0.00,,,0.13,WUHU216HW,2013-05-26 06:39:00,
2013-05-25 23:44:00,50.0,45.4,29.97,SW,225,0.0,0.4,84,0.00,,,0.13,WUHU216HW,2013-05-26 06:44:00,
2013-05-25 23:49:00,49.9,45.2,29.97,WSW,248,0.2,0.4,84,0.00,,,0.13,WUHU216HW,2013-05-26 06:49:00,
2013-05-25 23:54:00,49.9,45.2,29.97,WSW,248,0.0,0.2,84,0.00,,,0.13,WUHU216HW,2013-05-26 06:54:00,
2013-05-25 23:59:00,49.9,45.2,29.97,WSW,248,0.0,0.2,84,0.00,,,0.00,WUHU216HW,2013-05-26 06:59:00,